When you browse on this site, cookies collect data to enhance your experience and personalize the content and advertising you see.
Visit our Privacy Policy to learn more. By continuing to use the site, you agree to this use of cookies and data.
  • en Suisse
  • Liste des pays
  • À 7 jours
  • Température de l'eau
  • Carte satellitaire
  • Carte météo
  • Widgets météo
  • user-avatar
    Se connecter

    Météo par heure à Larnaka

    Ce jour, 23 Janvier, Mercredi

    Heure Température Précipitation Vent Pression Humidité
    00:00 +11°C° 0 mm 1 m/s 763 mmHg 87%
    01:00 +11°C° 0 mm 1 m/s 763 mmHg 88%
    02:00 +11°C° 0 mm 1 m/s 762 mmHg 87%
    03:00 +10°C° 0 mm 1 m/s 762 mmHg 88%
    04:00 +10°C° 0 mm 1 m/s 762 mmHg 88%
    05:00 +10°C° 0 mm 1 m/s 762 mmHg 88%
    06:00 +11°C° 0 mm 1 m/s 762 mmHg 86%
    07:00 +12°C° 0 mm 1 m/s 762 mmHg 83%
    08:00 +13°C° 0 mm 3 m/s 763 mmHg 76%
    09:00 +14°C° 0 mm 3 m/s 762 mmHg 70%
    10:00 +16°C° 0 mm 3 m/s 762 mmHg 65%
    11:00 +17°C° 0 mm 3 m/s 762 mmHg 60%
    12:00 +17°C° 0 mm 3 m/s 762 mmHg 59%
    13:00 +17°C° 0 mm 3 m/s 762 mmHg 58%
    14:00 +17°C° 0 mm 4 m/s 761 mmHg 58%
    15:00 +15°C° 0 mm 4 m/s 761 mmHg 61%
    16:00 +15°C° 0 mm 4 m/s 761 mmHg 64%
    17:00 +14°C° 0 mm 5 m/s 760 mmHg 68%
    18:00 +13°C° 0 mm 6 m/s 760 mmHg 69%
    19:00 +12°C° 0 mm 7 m/s 760 mmHg 71%
    20:00 +12°C° 0 mm 8 m/s 760 mmHg 73%
    21:00 +12°C° 0 mm 8 m/s 759 mmHg 73%
    22:00 +11°C° 0 mm 8 m/s 759 mmHg 73%
    23:00 +11°C° 0 mm 9 m/s 759 mmHg 73%

    Demain, 24 Janvier, Jeudi

    Heure Température Précipitation Vent Pression Humidité
    00:00 +11°C° 0 mm 8 m/s 759 mmHg 73%
    01:00 +11°C° 0 mm 8 m/s 758 mmHg 73%
    02:00 +11°C° 0 mm 8 m/s 758 mmHg 73%
    03:00 +11°C° 0 mm 8 m/s 758 mmHg 72%
    04:00 +11°C° 0 mm 8 m/s 757 mmHg 72%
    05:00 +11°C° 0 mm 8 m/s 757 mmHg 72%
    06:00 +11°C° 0 mm 7 m/s 757 mmHg 71%
    07:00 +12°C° 0 mm 7 m/s 757 mmHg 70%
    08:00 +12°C° 0 mm 7 m/s 757 mmHg 69%
    09:00 +15°C° 0 mm 7 m/s 756 mmHg 65%
    10:00 +16°C° 0 mm 6 m/s 756 mmHg 61%
    11:00 +19°C° 0 mm 6 m/s 756 mmHg 56%
    12:00 +19°C° 0 mm 6 m/s 756 mmHg 57%
    13:00 +19°C° 0 mm 5 m/s 755 mmHg 58%
    14:00 +19°C° 0 mm 5 m/s 755 mmHg 58%
    15:00 +17°C° 0 mm 6 m/s 755 mmHg 63%
    16:00 +17°C° 0 mm 7 m/s 755 mmHg 68%
    17:00 +16°C° 0 mm 7 m/s 756 mmHg 72%
    18:00 +15°C° 0 mm 9 m/s 756 mmHg 72%
    19:00 +13°C° 0 mm 10 m/s 757 mmHg 71%
    20:00 +12°C° 0 mm 11 m/s 757 mmHg 70%
    21:00 +12°C° 0 mm 10 m/s 758 mmHg 71%
    22:00 +12°C° 0 mm 9 m/s 759 mmHg 71%
    23:00 +12°C° 0 mm 8 m/s 759 mmHg 71%

    Après-demain, 25 Janvier, Vendredi

    Heure Température Précipitation Vent Pression Humidité
    00:00 +11°C° 0 mm 7 m/s 760 mmHg 72%
    01:00 +11°C° 0 mm 7 m/s 760 mmHg 73%
    02:00 +11°C° 0 mm 6 m/s 760 mmHg 74%
    03:00 +12°C° 0 mm 5 m/s 760 mmHg 74%
    04:00 +11°C° 0 mm 4 m/s 760 mmHg 74%
    05:00 +11°C° 0 mm 3 m/s 760 mmHg 75%
    06:00 +12°C° 0 mm 3 m/s 760 mmHg 72%
    07:00 +12°C° 0 mm 3 m/s 760 mmHg 69%
    08:00 +13°C° 0 mm 3 m/s 760 mmHg 66%
    09:00 +14°C° 0 mm 3 m/s 761 mmHg 59%
    10:00 +16°C° 0 mm 3 m/s 761 mmHg 53%
    11:00 +18°C° 0 mm 4 m/s 761 mmHg 47%
    12:00 +18°C° 0 mm 4 m/s 760 mmHg 47%
    13:00 +18°C° 0 mm 4 m/s 760 mmHg 48%
    14:00 +18°C° 0 mm 4 m/s 759 mmHg 48%
    15:00 +17°C° 0 mm 4 m/s 759 mmHg 52%
    16:00 +15°C° 0 mm 4 m/s 758 mmHg 57%
    17:00 +14°C° 0 mm 4 m/s 758 mmHg 61%
    18:00 +13°C° 0 mm 4 m/s 758 mmHg 65%
    19:00 +13°C° 0 mm 3 m/s 758 mmHg 69%
    20:00 +12°C° 0 mm 3 m/s 758 mmHg 73%
    21:00 +12°C° 0 mm 3 m/s 758 mmHg 75%
    22:00 +11°C° 0 mm 3 m/s 758 mmHg 77%
    23:00 +11°C° 0 mm 4 m/s 758 mmHg 79%

    26 Janvier, Samedi

    Heure Température Précipitation Vent Pression Humidité
    00:00 +11°C° 0 mm 4 m/s 757 mmHg 80%
    01:00 +11°C° 0 mm 4 m/s 757 mmHg 81%
    02:00 +10°C° 0 mm 5 m/s 757 mmHg 82%
    03:00 +11°C° 0 mm 4 m/s 756 mmHg 83%
    04:00 +11°C° 0 mm 4 m/s 756 mmHg 85%
    05:00 +11°C° 0 mm 4 m/s 755 mmHg 87%
    06:00 +12°C° 0 mm 3 m/s 756 mmHg 87%
    07:00 +13°C° 0 mm 3 m/s 756 mmHg 87%
    08:00 +15°C° 0 mm 2 m/s 756 mmHg 87%
    09:00 +16°C° 0 mm 3 m/s 756 mmHg 76%
    10:00 +18°C° 0 mm 3 m/s 756 mmHg 64%
    11:00 +19°C° 0 mm 4 m/s 756 mmHg 52%
    12:00 +19°C° 0 mm 3 m/s 755 mmHg 50%
    13:00 +19°C° 0 mm 3 m/s 755 mmHg 48%
    14:00 +20°C° 0 mm 3 m/s 754 mmHg 46%
    15:00 +19°C° 0 mm 3 m/s 754 mmHg 50%
    16:00 +18°C° 0 mm 4 m/s 754 mmHg 55%
    17:00 +16°C° 0 mm 5 m/s 754 mmHg 59%
    18:00 +15°C° 0 mm 6 m/s 755 mmHg 60%
    19:00 +14°C° 0 mm 7 m/s 755 mmHg 62%
    20:00 +13°C° 0 mm 8 m/s 756 mmHg 63%
    21:00 +12°C° 0 mm 9 m/s 756 mmHg 66%
    22:00 +12°C° 0 mm 9 m/s 756 mmHg 68%
    23:00 +11°C° 0 mm 9 m/s 756 mmHg 71%

    27 Janvier, Dimanche

    Heure Température Précipitation Vent Pression Humidité
    00:00 +11°C° 0.1 mm 9 m/s 756 mmHg 71%
    01:00 +11°C° 0.1 mm 9 m/s 756 mmHg 71%
    02:00 +11°C° 0.1 mm 8 m/s 757 mmHg 71%
    03:00 +11°C° 0.2 mm 8 m/s 757 mmHg 72%
    04:00 +11°C° 0.2 mm 8 m/s 756 mmHg 74%
    05:00 +11°C° 0.2 mm 8 m/s 756 mmHg 75%
    06:00 +11°C° 0.1 mm 8 m/s 757 mmHg 74%
    07:00 +12°C° 0.1 mm 8 m/s 757 mmHg 73%
    08:00 +12°C° 0.1 mm 7 m/s 757 mmHg 71%
    09:00 +14°C° 0.1 mm 7 m/s 757 mmHg 66%
    10:00 +15°C° 0.1 mm 7 m/s 758 mmHg 61%
    11:00 +16°C° 0.1 mm 8 m/s 758 mmHg 56%
    12:00 +16°C° 0 mm 8 m/s 757 mmHg 55%
    13:00 +16°C° 0 mm 8 m/s 757 mmHg 55%
    14:00 +16°C° 0 mm 8 m/s 756 mmHg 54%
    15:00 +15°C° 0.1 mm 8 m/s 756 mmHg 58%
    16:00 +13°C° 0.1 mm 8 m/s 756 mmHg 62%
    17:00 +13°C° 0.1 mm 8 m/s 756 mmHg 65%
    18:00 +12°C° 0.5 mm 8 m/s 757 mmHg 66%
    19:00 +12°C° 0.5 mm 9 m/s 757 mmHg 67%
    20:00 +11°C° 0.5 mm 9 m/s 757 mmHg 68%
    21:00 +11°C° 0.8 mm 10 m/s 757 mmHg 67%
    22:00 +11°C° 0.8 mm 10 m/s 757 mmHg 66%
    23:00 +11°C° 0.8 mm 11 m/s 757 mmHg 64%

    28 Janvier, Lundi

    Heure Température Précipitation Vent Pression Humidité
    00:00 +11°C° 0.7 mm 11 m/s 757 mmHg 68%
    01:00 +10°C° 0.7 mm 12 m/s 757 mmHg 73%
    02:00 +10°C° 0.7 mm 12 m/s 757 mmHg 77%
    03:00 +10°C° 0.6 mm 12 m/s 757 mmHg 75%
    04:00 +10°C° 0.6 mm 12 m/s 757 mmHg 74%
    05:00 +11°C° 0.6 mm 11 m/s 757 mmHg 73%
    06:00 +12°C° 0.1 mm 11 m/s 757 mmHg 72%
    07:00 +12°C° 0.1 mm 10 m/s 758 mmHg 72%
    08:00 +12°C° 0.1 mm 10 m/s 759 mmHg 71%
    09:00 +13°C° 0.1 mm 10 m/s 759 mmHg 67%
    10:00 +14°C° 0.1 mm 10 m/s 760 mmHg 62%
    11:00 +16°C° 0.1 mm 10 m/s 760 mmHg 58%
    12:00 +17°C° 0 mm 10 m/s 761 mmHg 56%
    13:00 +17°C° 0 mm 10 m/s 761 mmHg 55%
    14:00 +17°C° 0 mm 10 m/s 761 mmHg 54%
    15:00 +16°C° 0 mm 9 m/s 762 mmHg 58%
    16:00 +15°C° 0 mm 8 m/s 762 mmHg 62%
    17:00 +15°C° 0 mm 7 m/s 762 mmHg 66%
    18:00 +14°C° 0 mm 7 m/s 763 mmHg 69%
    19:00 +13°C° 0 mm 6 m/s 764 mmHg 72%
    20:00 +13°C° 0 mm 6 m/s 764 mmHg 75%
    21:00 +12°C° 0 mm 5 m/s 765 mmHg 76%
    22:00 +12°C° 0 mm 5 m/s 765 mmHg 77%
    23:00 +12°C° 0 mm 5 m/s 765 mmHg 78%
    Voir plus